F4FEB-14 Weather Reports


Display with metric or nautical units.
time (UTC)temp
F
wind
direction
speed
MPH
gust
MPH
rain 1hr
in
rain 24hr
in
rain mn
in
humidity
%
barometer
mb
20260507171915 65 300 0.0 3.0 0.00 0.00 0.00 80 1015.8
20260507171414 65 345 1.0 4.0 0.00 0.00 0.00 77 1015.8
20260507170913 65 353 1.0 6.0 0.00 0.00 0.00 69 1015.8
20260507165910 66 346 3.0 6.0 0.00 0.00 0.00 60 1015.8
20260507165409 66 348 1.0 4.0 0.00 0.00 0.00 70 1015.9
20260507164908 65 323 1.0 6.0 0.00 0.00 0.00 68 1015.8
20260507164406 66 331 1.0 5.0 0.00 0.00 0.00 67 1015.9
20260507163905 66 333 2.0 4.0 0.00 0.00 0.00 67 1015.9
20260507163404 66 347 1.0 4.0 0.00 0.00 0.00 65 1015.9
20260507162401 64 2 1.0 7.0 0.00 0.00 0.00 68 1015.9
20260507161359 65 351 2.0 8.0 0.00 0.00 0.00 61 1016.0
20260507160856 69 339 2.0 8.0 0.00 0.00 0.00 55 1016.0
20260507160355 69 317 2.0 4.0 0.00 0.00 0.00 53 1016.0
20260507155855 69 124 0.0 4.0 0.00 0.00 0.00 54 1016.0
20260507155353 68 278 1.0 4.0 0.00 0.00 0.00 56 1016.1
20260507154853 68 314 2.0 4.0 0.00 0.00 0.00 59 1016.0
20260507154353 69 258 2.0 5.0 0.00 0.00 0.00 55 1016.0
20260507153946 68 357 1.0 8.0 0.00 0.00 0.00 59 1016.1
20260507153851 68 357 1.0 8.0 0.00 0.00 0.00 59 1016.1
20260507153614 68 355 1.0 8.0 0.00 0.00 0.00 62 1016.0
20260507153349 68 355 1.0 8.0 0.00 0.00 0.00 62 1016.0
20260507153208 69 7 1.0 6.0 0.00 0.00 0.00 63 1016.0
20260507152900 68 11 2.0 6.0 0.00 0.00 0.00 58 1016.1
20260507152848 69 7 1.0 6.0 0.00 0.00 0.00 63 1016.0
20260507152643 68 351 2.0 4.0 0.00 0.00 0.00 60 1016.1
20260507152347 68 11 2.0 6.0 0.00 0.00 0.00 58 1016.1
20260507151845 68 351 2.0 4.0 0.00 0.00 0.00 60 1016.1
20260507151344 67 307 0.0 6.0 0.00 0.00 0.00 63 1016.1
20260507150844 66 296 2.0 6.0 0.00 0.00 0.00 66 1016.1
20260507150342 64 299 1.0 6.0 0.00 0.00 0.00 68 1016.0
20260507145841 64 10 3.0 14.0 0.00 0.00 0.00 65 1016.3
20260507145340 63 34 7.0 14.0 0.00 0.00 0.00 65 1016.2
20260507144337 65 269 2.0 9.0 0.00 0.00 0.00 64 1016.3
20260507143836 66 8 2.0 9.0 0.00 0.00 0.00 68 1016.3
20260507143335 66 7 3.0 9.0 0.00 0.00 0.00 63 1016.4
20260507142834 65 24 3.0 10.0 0.00 0.00 0.00 67 1016.3
20260507141832 67 340 3.0 12.0 0.00 0.00 0.00 67 1016.3
20260507141331 65 318 2.0 11.0 0.00 0.00 0.00 75 1016.3
20260507140829 67 33 3.0 7.0 0.00 0.00 0.00 65 1016.4
20260507140327 65 272 2.0 6.0 0.00 0.00 0.00 69 1016.5
20260507135825 64 322 1.0 7.0 0.00 0.00 0.00 75 1016.6
20260507135325 65 325 1.0 8.0 0.00 0.00 0.00 76 1016.6
20260507134824 67 18 3.0 8.0 0.00 0.00 0.00 68 1016.6
20260507134323 67 279 3.0 8.0 0.00 0.00 0.00 74 1016.6
20260507133822 66 313 3.0 7.0 0.00 0.00 0.00 73 1016.7
20260507133321 63 318 1.0 7.0 0.00 0.00 0.00 85 1016.8
20260507132820 63 17 4.0 8.0 0.00 0.00 0.00 80 1016.8
20260507132318 65 288 3.0 8.0 0.00 0.00 0.00 80 1016.7
20260507131314 67 183 2.0 7.0 0.00 0.00 0.00 81 1016.7
20260507130813 64 2 2.0 8.0 0.00 0.00 0.00 92 1016.8
20260507130313 64 21 3.0 8.0 0.00 0.00 0.00 82 1016.9
20260507125811 67 242 2.0 6.0 0.00 0.00 0.00 75 1016.8
20260507125310 66 342 2.0 6.0 0.00 0.00 0.00 89 1016.8
20260507124811 63 229 2.0 7.0 0.00 0.00 0.00 89 1016.8
20260507124809 63 229 2.0 7.0 0.00 0.00 0.00 89 1016.8
20260507124308 65 348 2.0 7.0 0.00 0.00 0.00 82 1016.9
20260507123943 66 183 1.0 7.0 0.00 0.00 0.00 84 1016.9
20260507123807 66 183 1.0 7.0 0.00 0.00 0.00 84 1016.9
20260507123307 64 5 3.0 11.0 0.00 0.00 0.00 94 1016.9
20260507122306 65 13 4.0 9.0 0.00 0.00 0.00 90 1017.0
20260507121803 67 349 2.0 9.0 0.00 0.00 0.00 90 1017.0
20260507121302 67 312 2.0 9.0 0.00 0.00 0.00 89 1017.0
20260507120801 67 46 2.0 5.0 0.00 0.00 0.00 86 1017.0
20260507120300 66 278 3.0 5.0 0.00 0.00 0.00 85 1017.0
20260507115758 64 237 1.0 7.0 0.00 0.00 0.00 99 1016.9
20260507115257 62 301 2.0 7.0 0.00 0.00 0.00 100 1017.0
20260507114254 63 297 3.0 8.0 0.00 0.00 0.00 100 1017.0
20260507113752 63 182 1.0 6.0 0.00 0.00 0.00 100 1017.0
20260507113251 61 279 2.0 6.0 0.00 0.00 0.00 100 1017.1
20260507112249 60 262 0.0 4.0 0.00 0.00 0.00 100 1017.0
20260507111247 61 354 2.0 8.0 0.00 0.00 0.00 100 1017.1
20260507110243 68 295 2.0 4.0 0.00 0.00 0.00 92 1017.0
20260507105241 65 331 1.0 7.0 0.00 0.00 0.00 100 1017.0
20260507104740 63 18 3.0 7.0 0.00 0.00 0.00 100 1017.1
20260507103738 61 282 2.0 6.0 0.00 0.00 0.00 100 1017.1
20260507103237 59 299 0.0 5.0 0.00 0.00 0.00 100 1017.2
20260507102736 60 321 1.0 4.0 0.00 0.00 0.00 100 1017.1
20260507102235 61 325 0.0 5.0 0.00 0.00 0.00 100 1017.1
20260507101733 62 340 2.0 6.0 0.00 0.00 0.00 100 1017.1
20260507101232 66 355 2.0 5.0 0.00 0.00 0.00 100 1017.1
20260507100730 65 7 2.0 5.0 0.00 0.00 0.00 100 1017.1
20260507095728 65 222 2.0 5.0 0.00 0.00 0.00 99 1017.0
20260507095227 62 352 0.0 4.0 0.00 0.00 0.00 100 1017.1
20260507094725 59 1 1.0 4.0 0.00 0.00 0.00 100 1017.2
20260507094224 57 29 2.0 3.0 0.00 0.00 0.00 100 1017.1
20260507093723 54 9 0.0 3.0 0.00 0.00 0.00 100 1017.3
20260507093222 55 8 1.0 4.0 0.00 0.00 0.00 100 1017.3
20260507092721 54 14 1.0 6.0 0.00 0.00 0.00 100 1017.2
20260507091720 57 302 1.0 3.0 0.00 0.00 0.00 100 1017.1
20260507091218 56 343 1.0 3.0 0.00 0.00 0.00 100 1017.2
20260507090717 57 2 0.0 5.0 0.00 0.00 0.00 100 1017.2
20260507085715 60 332 1.0 4.0 0.00 0.00 0.00 100 1017.1
20260507085214 60 303 1.0 4.0 0.00 0.00 0.00 100 1017.0
20260507084713 60 316 2.0 6.0 0.00 0.00 0.00 100 1017.0
20260507084212 59 6 4.0 6.0 0.00 0.00 0.00 100 1017.0
20260507083711 58 346 1.0 4.0 0.00 0.00 0.00 100 1017.1
20260507083210 56 348 1.0 3.0 0.00 0.00 0.00 100 1017.0
20260507082207 56 279 0.0 3.0 0.00 0.00 0.00 100 1016.9
20260507081706 57 247 1.0 3.0 0.00 0.00 0.00 100 1016.9
20260507081205 58 9 1.0 4.0 0.00 0.00 0.00 100 1016.9
20260507080705 58 337 0.0 3.0 0.00 0.00 0.00 100 1016.8
20260507080203 57 4 1.0 3.0 0.00 0.00 0.00 100 1016.8
20260507075702 56 17 0.0 3.0 0.00 0.00 0.00 100 1016.8
20260507075202 53 159 1.0 1.0 0.00 0.00 0.00 100 1016.9
20260507074701 53 269 0.0 1.0 0.00 0.00 0.00 100 1016.9
20260507074159 52 322 0.0 2.0 0.00 0.00 0.00 100 1016.9
20260507073156 52 349 1.0 2.0 0.00 0.00 0.00 100 1016.7
20260507072654 52 353 0.0 2.0 0.00 0.00 0.00 100 1016.7
20260507072154 52 335 0.0 2.0 0.00 0.00 0.00 100 1016.8
20260507071151 52 10 1.0 2.0 0.00 0.00 0.00 100 1016.8
20260507070650 51 211 0.0 3.0 0.00 0.00 0.00 100 1016.7
20260507070150 51 172 1.0 2.0 0.00 0.00 0.00 100 1016.6
20260507065148 50 293 0.0 2.0 0.00 0.00 0.00 100 1016.6
20260507064145 50 182 1.0 4.0 0.00 0.00 0.00 100 1016.6
20260507063643 50 154 1.0 3.0 0.00 0.00 0.00 100 1016.6
20260507063142 50 271 1.0 3.0 0.00 0.00 0.00 100 1016.5
20260507062641 50 157 1.0 3.0 0.00 0.00 0.00 100 1016.5
20260507062140 49 156 0.0 3.0 0.00 0.00 0.00 100 1016.6
20260507061639 49 163 2.0 3.0 0.00 0.00 0.00 100 1016.6
20260507061136 49 165 1.0 2.0 0.00 0.00 0.00 100 1016.5
20260507060635 49 153 1.0 2.0 0.00 0.00 0.00 100 1016.6
20260507060134 49 121 0.0 2.0 0.00 0.00 0.00 100 1016.5
20260507055634 48 138 1.0 2.0 0.00 0.00 0.00 100 1016.5
20260507055133 48 174 1.0 2.0 0.00 0.00 0.00 100 1016.5
20260507054129 48 213 0.0 2.0 0.00 0.00 0.00 100 1016.4
20260507053126 48 162 1.0 2.0 0.00 0.00 0.00 100 1016.4
20260507051615 48 163 1.0 4.0 0.00 1.04 0.00 100 1016.1
20260507051114 47 161 1.0 3.0 0.00 1.04 0.00 100 1016.1
20260507050613 47 159 2.0 3.0 0.00 1.04 0.00 100 1016.1
20260507045610 47 168 2.0 4.0 0.00 1.04 0.00 100 1016.0
20260507045110 47 174 2.0 3.0 0.00 1.04 0.00 100 1015.9
20260507044608 47 166 2.0 3.0 0.00 1.04 0.00 100 1015.9
20260507044107 47 124 0.0 2.0 0.00 1.04 0.00 100 1015.9
20260507043607 47 313 0.0 2.0 0.00 1.04 0.00 100 1015.9
20260507043105 47 307 0.0 2.0 0.00 1.04 0.00 100 1015.9
20260507042604 47 156 1.0 3.0 0.00 1.04 0.00 100 1015.9
20260507042103 47 155 1.0 3.0 0.00 1.04 0.00 100 1015.9
20260507041602 47 125 0.0 2.0 0.00 1.04 0.00 100 1015.8
20260507041059 47 235 0.0 1.0 0.00 1.04 0.00 100 1015.8
20260507040557 47 163 0.0 2.0 0.00 1.04 0.00 100 1015.7
20260507040056 47 258 0.0 2.0 0.00 1.04 0.00 100 1015.8
20260507035053 47 315 0.0 2.0 0.00 1.04 0.00 100 1015.8
20260507034553 47 193 1.0 3.0 0.00 1.04 0.00 100 1015.7
20260507033551 47 54 0.0 2.0 0.00 1.04 0.00 100 1015.7
20260507033048 47 183 0.0 2.0 0.00 1.04 0.00 100 1015.6
20260507032546 47 165 1.0 3.0 0.00 1.04 0.00 100 1015.6
20260507032044 47 166 1.0 3.0 0.00 1.04 0.00 100 1015.6
20260507031543 47 263 0.0 1.0 0.01 1.04 0.00 100 1015.5
20260507031042 47 229 0.0 4.0 0.01 1.04 0.00 100 1015.4
20260507030541 47 161 1.0 4.0 0.01 1.04 0.00 100 1015.5
20260507030040 47 210 0.0 4.0 0.00 1.03 0.00 100 1015.5
20260507025538 47 281 0.0 2.0 0.00 1.03 0.00 100 1015.4
20260507025037 47 247 0.0 2.0 0.00 1.03 0.00 100 1015.4
20260507024536 47 244 0.0 3.0 0.00 1.03 0.00 100 1015.4
20260507024035 47 211 1.0 3.0 0.00 1.03 0.00 100 1015.4
20260507023534 47 170 2.0 3.0 0.00 1.03 0.00 100 1015.3
20260507023030 47 275 0.0 4.0 0.00 1.03 0.00 100 1015.5
20260507022529 47 175 1.0 4.0 0.00 1.03 0.00 100 1015.4
20260507022026 47 258 0.0 3.0 0.00 1.03 0.00 100 1015.3
20260507021522 47 163 1.0 3.0 0.02 1.03 0.00 100 1015.3
20260507021021 47 287 0.0 3.0 0.02 1.03 0.00 100 1015.3
20260507020520 47 167 1.0 3.0 0.02 1.03 0.00 100 1015.1
20260507015016 47 269 1.0 4.0 0.01 1.02 0.00 100 1015.1
20260507014512 47 227 1.0 3.0 0.01 1.02 0.00 100 1015.1
20260507013511 47 176 1.0 4.0 0.00 1.01 0.00 100 1015.1
20260507013009 47 162 2.0 4.0 0.00 1.01 0.00 100 1015.1
20260507012507 47 177 1.0 3.0 0.00 1.01 0.00 100 1015.0
20260507012006 47 197 0.0 3.0 0.00 1.01 0.00 100 1015.0
20260507011505 47 151 1.0 3.0 0.05 1.01 0.00 100 1015.0
20260507011004 47 192 1.0 3.0 0.05 1.01 0.00 100 1015.0
20260507010503 47 154 1.0 3.0 0.05 1.01 0.00 100 1015.1
20260507010002 47 177 1.0 4.0 0.04 1.00 0.00 100 1015.1
20260507005501 47 186 1.0 4.0 0.04 1.00 0.00 100 1015.0
20260507005000 47 164 2.0 4.0 0.03 0.99 0.00 100 1014.9
20260507004457 47 171 2.0 5.0 0.03 0.99 0.00 100 1015.0
20260507003956 47 193 1.0 5.0 0.02 0.98 0.00 100 1015.0
20260507003454 47 157 2.0 3.0 0.01 0.97 0.00 100 1015.0
20260507002953 47 145 1.0 3.0 0.01 0.97 0.00 100 1015.0
20260507002452 47 177 1.0 1.0 0.01 0.97 0.00 100 1015.1
20260507001951 47 215 0.0 1.0 0.00 0.96 0.00 100 1015.0
20260507000949 47 285 0.0 2.0 0.01 0.96 0.00 100 1014.9
20260507000450 47 193 1.0 5.0 0.01 0.96 0.00 100 1015.0
20260506235946 47 170 2.0 5.0 0.01 0.96 0.00 100 1014.9
20260506235445 47 167 2.0 7.0 0.01 0.96 0.00 100 1014.9
20260506234944 47 161 3.0 7.0 0.01 0.96 0.00 100 1014.9
20260506234444 47 160 2.0 4.0 0.01 0.96 0.00 100 1014.9
20260506233943 47 204 1.0 6.0 0.01 0.96 0.00 100 1014.9
20260506233442 47 160 3.0 6.0 0.01 0.96 0.00 100 1014.9
20260506232940 47 168 1.0 4.0 0.01 0.96 0.00 100 1014.9
20260506232439 47 192 2.0 4.0 0.01 0.96 0.00 100 1014.9
20260506231938 47 165 2.0 5.0 0.00 0.95 0.00 100 1014.8
20260506231436 47 157 3.0 5.0 0.05 0.94 0.00 100 1014.8
20260506230935 47 225 1.0 3.0 0.05 0.93 0.00 100 1014.7
20260506225933 47 179 2.0 4.0 0.05 0.93 0.00 100 1014.8
20260506225431 47 203 1.0 5.0 0.05 0.93 0.00 100 1014.6
20260506224930 47 179 1.0 5.0 0.04 0.92 0.00 100 1014.7
20260506223927 47 189 2.0 5.0 0.02 0.91 0.00 100 1014.7
20260506223426 47 167 2.0 5.0 0.02 0.91 0.00 100 1014.6
20260506222924 47 166 2.0 8.0 0.01 0.90 0.00 100 1014.7
20260506222423 47 185 3.0 8.0 0.01 0.90 0.00 100 1014.6
20260506221922 47 196 2.0 6.0 0.00 0.89 0.00 100 1014.6
20260506221421 47 164 2.0 5.0 0.00 0.89 0.00 100 1014.5
20260506220417 47 174 3.0 6.0 0.00 0.89 0.00 100 1014.3
20260506215916 47 165 3.0 7.0 0.00 0.89 0.00 100 1014.3
20260506214911 47 177 3.0 7.0 0.00 0.89 0.00 100 1014.3
20260506213407 47 212 2.0 6.0 0.00 0.89 0.00 100 1014.2
20260506212906 47 172 3.0 6.0 0.00 0.89 0.00 100 1014.2
20260506212405 47 190 1.0 4.0 0.00 0.89 0.00 100 1014.2
20260506211904 47 213 1.0 6.0 0.00 0.89 0.00 100 1014.2
20260506210900 47 173 3.0 6.0 0.00 0.89 0.00 100 1014.2
20260506210400 47 167 3.0 7.0 0.00 0.89 0.00 100 1014.2
20260506205356 47 171 3.0 6.0 0.00 0.89 0.00 100 1014.1
20260506204353 47 171 3.0 5.0 0.00 0.89 0.00 100 1014.2
20260506203852 47 212 1.0 3.0 0.00 0.89 0.00 100 1014.0
20260506203351 47 195 1.0 2.0 0.00 0.89 0.00 100 1014.1
20260506202849 47 234 1.0 6.0 0.00 0.89 0.00 100 1014.1
20260506201846 46 175 3.0 6.0 0.00 0.89 0.00 100 1013.9
20260506201345 46 213 1.0 4.0 0.02 0.89 0.00 100 1014.0
20260506200844 46 235 1.0 4.0 0.02 0.89 0.00 100 1013.8
20260506200343 46 168 2.0 4.0 0.02 0.89 0.00 100 1013.9
20260506195340 46 164 1.0 2.0 0.02 0.89 0.00 100 1013.7
20260506194838 46 251 0.0 3.0 0.02 0.89 0.00 100 1013.7
20260506193835 47 275 0.0 3.0 0.01 0.88 0.00 100 1013.6
20260506193334 47 252 1.0 4.0 0.01 0.88 0.00 100 1013.6
20260506192833 47 206 1.0 4.0 0.01 0.88 0.00 100 1013.5
20260506191831 47 173 2.0 4.0 0.00 0.87 0.00 100 1013.4
20260506191330 47 170 2.0 4.0 0.02 0.87 0.00 100 1013.5
20260506190828 47 171 2.0 4.0 0.02 0.87 0.00 100 1013.3
20260506190327 47 170 2.0 6.0 0.02 0.87 0.00 100 1013.3
20260506185826 47 167 2.0 6.0 0.01 0.86 0.00 100 1013.3
20260506185325 47 169 2.0 7.0 0.01 0.86 0.00 100 1013.3
20260506184824 47 174 2.0 7.0 0.01 0.86 0.00 100 1013.2
20260506184323 47 171 3.0 7.0 0.01 0.86 0.00 100 1013.2
20260506183821 47 163 4.0 7.0 0.00 0.85 0.00 100 1013.1
20260506183320 47 171 4.0 7.0 0.00 0.85 0.00 100 1013.1
20260506182819 47 167 3.0 7.0 0.00 0.85 0.00 100 1013.1
20260506182316 47 165 3.0 8.0 0.00 0.85 0.00 100 1013.2
20260506181815 47 170 3.0 8.0 0.00 0.85 0.00 100 1013.0
20260506181314 47 168 4.0 7.0 0.03 0.85 0.00 100 1013.0
20260506180813 47 164 3.0 7.0 0.03 0.85 0.00 100 1012.9
20260506180312 47 161 4.0 6.0 0.02 0.84 0.00 100 1012.8
20260506175811 47 159 3.0 6.0 0.02 0.84 0.00 100 1012.8
20260506175310 47 167 3.0 8.0 0.01 0.83 0.00 100 1012.8
20260506174809 47 157 3.0 8.0 0.01 0.83 0.00 100 1012.7
20260506174308 47 154 4.0 8.0 0.01 0.83 0.00 100 1012.7
20260506173807 47 196 2.0 8.0 0.00 0.82 0.00 100 1012.7
20260506173306 47 162 3.0 8.0 0.00 0.82 0.00 100 1012.7
20260506172804 47 163 4.0 8.0 0.00 0.82 0.00 100 1012.7
20260506172306 47 159 3.0 6.0 0.00 0.82 0.00 100 1012.6